[[{"header":{"parameterUnit":"m.s-1","parameterCategory":1,"la1":30.2991,"la2":30.254,"lo1":-89.0895,"lo2":-89.0444,"dx":0.0017,"dy":0.0017,"nx":28,"ny":28,"refTime":"2023-01-20T09:00:00:Z","depth":0,"parameterNumber":2,"parameterNumberName":"U-component_of_WINDS"},"data":[0,0,0,0,0,0,0,0,0,0,0,0,0,0,0,0,0,0,0,0,0,0,0,0,0,0,0,0,0,0,0,0,0,0,0,0,0,0,0,0,0,0,0,0,0,0,0,0,0,0,0,0,0,0,0,0,0,0,-4.1207,-4.1207,0,-4.1228,-4.1228,-4.1229,-4.1087,-4.1083,-4.1079,-4.1075,-4.1101,-4.1105,-4.111,0,0,0,0,0,0,0,0,0,0,0,0,0,-4.1046,-4.105,-4.1207,-4.1207,-4.1207,-4.1228,-4.1228,-4.1229,-4.1087,-4.1083,-4.1078,-4.1073,-4.1099,-4.1105,-4.111,0,0,0,0,0,0,0,0,0,0,0,0,0,-4.1097,-4.1051,-4.1207,-4.1139,-4.1133,-4.1228,-4.1228,-4.1229,-4.1088,-4.1082,-4.1076,-4.1071,-4.1098,-4.1104,-4.1111,-4.1273,0,0,-4.1131,-4.1134,0,0,0,0,0,0,0,0,-4.1094,-4.1103,-4.1149,-4.1144,-4.1137,-4.1148,-4.1181,-4.1244,-4.109,-4.1106,-4.1075,-4.1068,-4.1122,-4.1126,-4.1143,-4.1274,-4.1275,-4.1132,-4.1136,-4.1139,-4.114,0,0,0,0,0,0,0,-4.1091,-4.1101,-4.1215,-4.115,-4.1143,-4.1109,-4.1109,-4.1192,-4.1147,-4.1104,-4.1093,-4.1098,-4.1118,-4.1137,-4.1143,-4.1275,-4.1131,-4.1137,-4.1141,-4.1144,-4.1541,-4.1547,0,0,0,0,0,0,-4.1096,-4.1099,-4.1214,-4.1216,-4.11,-4.1117,-4.1117,-4.1151,-4.1146,-4.1139,-4.1103,-4.1091,-4.1129,-4.1135,-4.1143,-4.1334,-4.1138,-4.1145,-4.1149,-4.1534,-4.1542,-4.1549,0,0,0,0,0,0,-4.1093,-4.1108,-4.1214,-4.1155,-4.1166,-4.1126,-4.1165,-4.1155,-4.1174,-4.1145,-4.1137,-4.1131,-4.1125,-4.1134,-4.1242,-4.1333,-4.1148,-4.1154,-4.1527,-4.1537,-4.1546,-4.1716,0,0,0,0,0,0,-4.1089,-4.1107,-4.1168,-4.1157,-4.1169,-4.1311,-4.1171,-4.116,-4.1186,-4.1171,-4.117,-4.1164,-4.1121,-4.1232,-4.1248,-4.1339,-4.1159,-4.1518,-4.1531,-4.1543,-4.1702,-4.173,-4.1754,0,0,0,0,0,-4.1084,-4.1215,-4.1172,-4.1186,-4.1244,-4.1316,-4.1323,-4.127,-4.1194,-4.1255,-4.1236,-4.1164,-4.132,-4.1245,-4.1261,-4.1355,-4.1512,-4.1527,-4.1542,-4.169,-4.1725,-4.1754,0,0,0,0,0,0,-4.1239,-4.1213,-4.1164,-4.1296,-4.1309,-4.1292,-4.1368,-4.1308,-4.1344,-4.1329,-4.1261,-4.1263,-4.1382,-4.1378,-4.1295,-4.1512,-4.1403,-4.1422,-4.151,-4.1543,-4.1568,-4.1568,-4.1164,0,0,0,0,0,-4.1288,-4.1348,-4.1322,-4.1441,-4.145,-4.1408,-4.1438,-4.1395,-4.1407,-4.1412,-4.1401,-4.1417,-4.1469,-4.1505,-4.1552,-4.17,-4.1699,-4.1773,-4.1799,-4.1821,-4.1838,-4.1918,-4.1951,-4.1598,-4.1597,-4.1597,0,0,-4.1391,-4.1384,-4.1427,-4.1472,-4.1478,-4.1543,-4.1414,-4.1488,-4.1536,-4.1424,-4.1525,-4.1518,-4.153,-4.1659,-4.1716,-4.166,-4.1936,-4.1839,-4.1857,-4.1863,-4.1937,-4.197,-4.2,-4.1608,-4.1606,-4.1604,0,0,-4.1613,-4.1613,-4.1712,-4.172,-4.173,-4.1701,-4.1725,-4.1717,-4.1708,-4.1807,-4.1725,-4.1781,-4.1873,-4.1885,-4.1904,-4.213,-4.2066,-4.2147,-4.2286,-4.2364,-4.2392,-4.2416,-4.2499,-4.2529,-4.2165,-4.2165,-4.2165,0,-4.174,-4.1833,-4.1771,-4.1851,-4.1874,-4.1774,-4.1875,-4.1886,-4.1912,-4.1931,-4.1868,-4.1981,-4.1982,-4.2113,-4.2169,-4.2186,-4.2213,-4.2148,-4.2393,-4.2417,-4.2438,-4.2517,-4.2548,-4.2175,-4.2174,-4.2173,-4.2172,0,-4.199,-4.2057,-4.2136,-4.2162,-4.2194,-4.2284,-4.2237,-4.2277,-4.2231,-4.2209,-4.2313,-4.2311,-4.2356,-4.2384,-4.234,-4.251,-4.2475,-4.2404,-4.2293,-4.2483,-4.2556,-4.2585,-4.2189,-4.2186,-4.2183,-4.218,0,0,-4.2311,-4.2301,-4.2332,-4.2342,-4.2345,-4.2396,-4.2482,-4.2525,-4.2562,-4.2582,-4.2654,-4.2733,-4.2667,-4.2688,-4.2646,-4.2714,-4.2896,-4.2634,-4.2633,-4.2685,-4.3085,-4.314,-4.3176,-4.2852,-4.2858,-4.2862,-4.3084,0,-4.2529,-4.2674,-4.2621,-4.2771,-4.2832,-4.2738,-4.2813,-4.2824,-4.2806,-4.2857,-4.2836,-4.2895,-4.2802,-4.2814,-4.2878,-4.2861,-4.2976,-4.2843,-4.2921,-4.2924,-4.2923,-4.3213,-4.3272,-4.3481,-4.3112,-4.3117,-4.312,0,-4.2802,-4.2833,-4.299,-4.2982,-4.3006,-4.3075,-4.311,-4.3159,-4.317,-4.3152,-4.3176,-4.3118,-4.3203,-4.3092,-4.3209,-4.3121,-4.3149,-4.3145,-4.3152,-4.3159,-4.3035,-4.323,-4.3547,-4.3579,-4.3164,-4.316,-4.3157,0,-4.3024,-4.3104,-4.3208,-4.322,-4.3214,-4.3265,-4.3265,-4.3269,-4.3299,-4.333,-4.3349,-4.339,-4.3413,-4.3447,-4.3403,-4.3325,-4.3528,-4.3412,-4.3518,-4.3519,-4.3566,-4.3564,-4.3895,-4.3582,-4.3581,-4.358,-4.358,0,-4.3273,-4.3373,-4.3307,-4.3372,-4.3481,-4.3419,-4.3529,-4.3519,-4.3524,-4.3585,-4.3506,-4.3566,-4.3503,-4.3557,-4.3523,-4.3627,-4.3638,-4.3627,-4.3617,-4.3635,-4.3637,-4.3655,-4.364,-4.3589,-4.3587,-4.3585,-4.3584,0,-4.354,-4.3499,-4.3607,-4.3592,-4.359,-4.3672,-4.366,-4.372,-4.3695,-4.3775,-4.379,-4.3753,-4.3813,-4.3771,-4.3831,-4.3808,-4.3945,-4.3914,-4.3942,-4.3934,-4.4043,-4.4034,-4.4397,-4.4443,-4.4099,-4.4102,-4.4105,0,-4.3703,-4.3777,-4.377,-4.3805,-4.381,-4.3868,-4.3897,-4.3839,-4.3873,-4.3891,-4.395,-4.4002,-4.4042,-4.4142,-4.4122,-4.4168,-4.4138,-4.4262,-4.4145,-4.4161,-4.4143,-4.414,-4.4148,-4.4287,-4.4291,-4.4294,-4.4297,0,-4.3997,-4.3973,-4.4018,-4.4057,-4.4094,-4.4122,-4.4143,-4.4177,-4.4118,-4.4161,-4.422,-4.4251,-4.4312,-4.4366,-4.4404,-4.4405,-4.4344,-4.4334,-4.4361,-4.4382,-4.4395,-4.4392,-4.4009,-4.4326,-4.4323,-4.4321,-4.432,-4.4318,-4.4218,-4.428,-4.4285,-4.4338,-4.4348,-4.437,-4.4426,-4.4408,-4.4456,-4.4501,-4.4464,-4.4536,-4.4546,-4.459,-4.4599,-4.4656,-4.4605,-4.4644,-4.4655,-4.4666,-4.4682,-4.4385,-4.4662,-4.4661,-4.4661,-4.466,-4.4659,0,-4.451,-4.4509,-4.4558,-4.459,-4.4632,-4.4567,-4.4587,-4.4628,-4.4692,-4.4705,-4.4745,-4.4815,-4.4867,-4.4851,-4.4898,-4.4946,-4.4919,-4.4961,-4.4958,-4.496,-4.4723,-4.4696,-4.4983,-4.4982,-4.4982,-4.4982,-4.4982,-4.4982,-4.4667,-4.477,-4.4747,-4.4854,-4.4851,-4.4921,-4.4938,-4.4959,-4.4969,-4.505,-4.5093,-4.5081,-4.5083,-4.5129,-4.5175,-4.5169,-4.5191,-4.5244,-4.5228,-4.5008,-4.4976,-4.4946,-4.492,-4.5249,-4.5249,-4.546,-4.5462,-4.5463]},{"header":{"parameterUnit":"m.s-1","parameterCategory":1,"la1":30.2991,"la2":30.254,"lo1":-89.0895,"lo2":-89.0444,"dx":0.0017,"dy":0.0017,"nx":28,"ny":28,"refTime":"2023-01-20T09:00:00:Z","depth":0,"parameterNumber":3,"parameterNumberName":"V-component_of_WINDS"},"data":[0,0,0,0,0,0,0,0,0,0,0,0,0,0,0,0,0,0,0,0,0,0,0,0,0,0,0,0,0,0,0,0,0,0,0,0,0,0,0,0,0,0,0,0,0,0,0,0,0,0,0,0,0,0,0,0,0,0,-2.9474,-2.9474,0,-2.9472,-2.9472,-2.9472,-2.9459,-2.9459,-2.9458,-2.9458,-2.9455,-2.9456,-2.9456,0,0,0,0,0,0,0,0,0,0,0,0,0,-2.9464,-2.9464,-2.9474,-2.9474,-2.9474,-2.9472,-2.9472,-2.9472,-2.9459,-2.9459,-2.9458,-2.9458,-2.9455,-2.9456,-2.9456,0,0,0,0,0,0,0,0,0,0,0,0,0,-2.9466,-2.9464,-2.9474,-2.9467,-2.9467,-2.9472,-2.9472,-2.9472,-2.9459,-2.9459,-2.9458,-2.9458,-2.9455,-2.9456,-2.9456,-2.9467,0,0,-2.9457,-2.9457,0,0,0,0,0,0,0,0,-2.9466,-2.9466,-2.9468,-2.9468,-2.9467,-2.9465,-2.9468,-2.947,-2.9459,-2.9462,-2.9458,-2.9458,-2.9459,-2.9459,-2.946,-2.9467,-2.9467,-2.9457,-2.9457,-2.9457,-2.9457,0,0,0,0,0,0,0,-2.9466,-2.9466,-2.9473,-2.9468,-2.9467,-2.9464,-2.9463,-2.9468,-2.9463,-2.9462,-2.9461,-2.9461,-2.9459,-2.9459,-2.946,-2.9467,-2.9457,-2.9457,-2.9457,-2.9458,-2.9483,-2.9483,0,0,0,0,0,0,-2.9467,-2.9466,-2.9473,-2.9473,-2.9465,-2.9464,-2.9464,-2.9466,-2.9463,-2.9462,-2.9461,-2.946,-2.9459,-2.9459,-2.9459,-2.9472,-2.9457,-2.9458,-2.9458,-2.9482,-2.9483,-2.9483,0,0,0,0,0,0,-2.9467,-2.9467,-2.9473,-2.9469,-2.947,-2.9465,-2.9468,-2.9467,-2.9467,-2.9463,-2.9462,-2.9463,-2.9459,-2.9459,-2.9465,-2.9471,-2.9458,-2.9458,-2.9482,-2.9482,-2.9483,-2.9497,0,0,0,0,0,0,-2.9466,-2.9468,-2.9472,-2.947,-2.947,-2.948,-2.9468,-2.9467,-2.9468,-2.9467,-2.9464,-2.9463,-2.9458,-2.9465,-2.9466,-2.9472,-2.9458,-2.9481,-2.9482,-2.9483,-2.9496,-2.9498,-2.95,0,0,0,0,0,-2.9466,-2.9477,-2.9473,-2.9474,-2.9476,-2.948,-2.948,-2.9475,-2.9469,-2.9473,-2.947,-2.9463,-2.9471,-2.9466,-2.9466,-2.9473,-2.9481,-2.9482,-2.9483,-2.9495,-2.9498,-2.95,0,0,0,0,0,0,-2.948,-2.9476,-2.9472,-2.9482,-2.9481,-2.9478,-2.9483,-2.9478,-2.9479,-2.9478,-2.947,-2.947,-2.9477,-2.9476,-2.947,-2.9483,-2.9474,-2.9476,-2.9484,-2.9486,-2.9488,-2.9488,-2.9459,0,0,0,0,0,-2.9484,-2.9488,-2.9485,-2.9494,-2.9494,-2.9489,-2.949,-2.9486,-2.9485,-2.9485,-2.9482,-2.9481,-2.9483,-2.9485,-2.9486,-2.9496,-2.9494,-2.95,-2.9502,-2.9504,-2.9505,-2.9508,-2.9511,-2.9487,-2.9487,-2.9487,0,0,-2.9493,-2.9491,-2.9495,-2.9496,-2.9496,-2.9499,-2.9489,-2.9493,-2.9496,-2.9485,-2.9491,-2.9489,-2.9487,-2.9495,-2.9498,-2.9494,-2.9511,-2.9505,-2.9507,-2.9507,-2.951,-2.9512,-2.9514,-2.9487,-2.9487,-2.9487,0,0,-2.9511,-2.9511,-2.9518,-2.9517,-2.9516,-2.9512,-2.9514,-2.9511,-2.9509,-2.9515,-2.9507,-2.9509,-2.9513,-2.9512,-2.9512,-2.9528,-2.9521,-2.9529,-2.9539,-2.9542,-2.9544,-2.9546,-2.9551,-2.9553,-2.953,-2.953,-2.953,0,-2.9522,-2.9528,-2.9522,-2.9527,-2.9527,-2.9518,-2.9524,-2.9524,-2.9523,-2.9524,-2.9519,-2.9523,-2.9521,-2.9528,-2.9531,-2.9532,-2.9533,-2.9529,-2.9545,-2.9546,-2.9548,-2.9552,-2.9554,-2.9531,-2.953,-2.953,-2.953,0,-2.9541,-2.9545,-2.955,-2.955,-2.9551,-2.9557,-2.9551,-2.9553,-2.9548,-2.9545,-2.955,-2.9547,-2.9548,-2.9549,-2.9545,-2.9555,-2.9552,-2.9546,-2.9537,-2.9551,-2.9555,-2.9556,-2.9532,-2.9531,-2.9531,-2.9531,0,0,-2.9568,-2.9563,-2.9565,-2.9564,-2.9562,-2.9564,-2.9569,-2.957,-2.9571,-2.9571,-2.9574,-2.9577,-2.9571,-2.9571,-2.9566,-2.9569,-2.9581,-2.9563,-2.9562,-2.9565,-2.959,-2.9594,-2.9596,-2.9577,-2.9577,-2.9577,-2.959,0,-2.9584,-2.9592,-2.9586,-2.9595,-2.9598,-2.9589,-2.9593,-2.9591,-2.9588,-2.9589,-2.9586,-2.9587,-2.958,-2.958,-2.9583,-2.9579,-2.9585,-2.9578,-2.9578,-2.9578,-2.9578,-2.9598,-2.9603,-2.9615,-2.9592,-2.9592,-2.9592,0,-2.9604,-2.9604,-2.9613,-2.9609,-2.961,-2.9614,-2.9613,-2.9615,-2.9613,-2.961,-2.9609,-2.9603,-2.9607,-2.9599,-2.9602,-2.9597,-2.9597,-2.9595,-2.9595,-2.9595,-2.9586,-2.9597,-2.9619,-2.9621,-2.9595,-2.9594,-2.9594,0,-2.9622,-2.9624,-2.963,-2.9629,-2.9625,-2.9627,-2.9626,-2.9623,-2.9623,-2.9622,-2.9622,-2.9622,-2.9622,-2.9621,-2.9615,-2.961,-2.9619,-2.9611,-2.9616,-2.9616,-2.9618,-2.9618,-2.9639,-2.9619,-2.9619,-2.9619,-2.9619,0,-2.964,-2.9646,-2.9637,-2.9641,-2.9646,-2.9639,-2.9645,-2.9642,-2.9639,-2.9641,-2.9633,-2.9635,-2.9627,-2.9628,-2.9623,-2.9626,-2.9626,-2.9624,-2.9622,-2.9624,-2.9624,-2.9623,-2.9622,-2.962,-2.962,-2.962,-2.962,0,-2.966,-2.9655,-2.966,-2.9655,-2.9654,-2.9659,-2.9654,-2.9656,-2.9652,-2.9655,-2.9655,-2.9649,-2.9649,-2.9643,-2.9642,-2.9638,-2.9643,-2.9641,-2.9644,-2.9643,-2.9649,-2.9648,-2.9669,-2.9671,-2.9651,-2.9651,-2.9652,0,-2.9672,-2.9676,-2.9672,-2.9672,-2.9671,-2.9673,-2.9673,-2.9666,-2.9666,-2.9663,-2.9665,-2.9665,-2.9664,-2.9665,-2.966,-2.9659,-2.9656,-2.9663,-2.9655,-2.9657,-2.9654,-2.9654,-2.9654,-2.9665,-2.9665,-2.9665,-2.9665,0,-2.9693,-2.969,-2.9691,-2.969,-2.9691,-2.969,-2.9688,-2.9689,-2.9681,-2.9682,-2.9682,-2.9682,-2.968,-2.968,-2.9678,-2.9675,-2.9668,-2.9668,-2.9669,-2.967,-2.9672,-2.967,-2.9648,-2.9667,-2.9667,-2.9667,-2.9667,-2.9667,-2.9709,-2.9712,-2.9709,-2.9709,-2.9707,-2.9706,-2.9708,-2.9704,-2.9704,-2.9702,-2.9698,-2.9699,-2.9695,-2.9691,-2.9689,-2.9689,-2.9685,-2.9687,-2.9687,-2.9688,-2.9688,-2.9672,-2.9689,-2.9689,-2.9689,-2.9689,-2.9689,0,-2.9729,-2.9726,-2.9727,-2.9725,-2.9725,-2.9719,-2.9717,-2.9717,-2.9718,-2.9716,-2.9715,-2.9714,-2.9714,-2.9708,-2.9706,-2.9707,-2.9704,-2.9707,-2.9706,-2.9706,-2.9692,-2.9691,-2.9709,-2.9709,-2.9709,-2.9709,-2.9709,-2.9709,-2.9739,-2.9743,-2.974,-2.9742,-2.9739,-2.974,-2.9739,-2.9737,-2.9735,-2.9735,-2.9734,-2.9731,-2.9726,-2.9724,-2.9723,-2.9721,-2.972,-2.9724,-2.9721,-2.9709,-2.9707,-2.9705,-2.9704,-2.9724,-2.9724,-2.9734,-2.9734,-2.9734]}]]